Montrose, CO

11:03 PM MST on February 25, 2017 (GMT -0700)
Montrose Regional

Weather History for KMTJ - December, 2013

Change the Weather History Date:

Friday, December 27, 2013

  Actual Average Record
Temperature  
Mean Temperature 26 °F 25 °F  
Max Temperature 40 °F 36 °F 46 °F (2006)
Min Temperature 11 °F 13 °F -10 °F (2015)
Degree Days  
Heating Degree Days 39 40  
Month to date heating degree days 1201 1027  
Since 1 July heating degree days 2607 2448  
Cooling Degree Days 0 0  
Month to date cooling degree days 0 0  
Year to date cooling degree days 891 643  
Moisture  
Dew Point 13 °F    
Average Humidity 64    
Maximum Humidity 84    
Minimum Humidity 43    
Precipitation  
Precipitation 0.00 in 0.02 in 0.09 in (2008)
Month to date precipitation 0.81 0.57  
Year to date precipitation 11.25 11.22  
Sea Level Pressure  
Sea Level Pressure 30.47 in    
Wind  
Wind Speed 5 mph (SSE)    
Max Wind Speed 10 mph    
Max Gust Speed 11 mph    
Visibility 10 miles    
Events      
T = Trace of Precipitation, MM = Missing Value Source: NWS Daily Summary

Daily Weather History Graph

Daily Weather History Graph

Search for Another Location

Airport or City:

Trip Planner

Search our weather history database for the weather conditions in past years. The results will help you decide how hot, cold, wet, or windy it might be!

Date:

Astronomy

Dec. 27, 2013 Rise Set
Actual Time 7:28 AM MST 4:57 PM MST
Civil Twilight 6:58 AM MST 5:27 PM MST
Nautical Twilight 6:24 AM MST 6:00 PM MST
Astronomical Twilight 5:52 AM MST 6:33 PM MST
Moon 2:05 AM MST (12/27) 1:08 PM MST (12/27)
Length of Visible Light 10h 29m
Length of Day
9h 29m
Waning Crescent, 28% of the Moon is Illuminated
Dec 27
Waning Crescent
Jan 1
New
Jan 7
First Quarter
Jan 15
Full
Jan 23
Last Quarter

Hourly Weather History & Observations

Time (MST) Temp. Windchill Dew Point Humidity Pressure Visibility Wind Dir Wind Speed Gust Speed Precip Events Conditions
12:53 AM 16.0 °F 4.4 °F 9.0 °F 74% 30.52 in 10.0 mi SSE 9.2 mph - N/A   Clear
1:53 AM 15.1 °F 3.3 °F 9.0 °F 77% 30.53 in 10.0 mi SSE 9.2 mph - N/A   Clear
2:53 AM 12.0 °F 0.5 °F 7.0 °F 80% 30.55 in 10.0 mi SSE 8.1 mph - N/A   Clear
3:53 AM 16.0 °F 4.4 °F 9.0 °F 74% 30.53 in 10.0 mi South 9.2 mph - N/A   Clear
4:53 AM 15.1 °F 4.2 °F 9.0 °F 77% 30.55 in 10.0 mi SSE 8.1 mph - N/A   Clear
5:53 AM 15.1 °F 3.3 °F 9.0 °F 77% 30.57 in 10.0 mi SE 9.2 mph - N/A   Clear
6:53 AM 16.0 °F 8.8 °F 10.0 °F 77% 30.58 in 10.0 mi SE 4.6 mph - N/A   Clear
7:53 AM 15.1 °F 6.4 °F 8.1 °F 74% 30.60 in 10.0 mi South 5.8 mph - N/A   Clear
8:53 AM 18.0 °F 8.7 °F 10.9 °F 74% 30.62 in 10.0 mi SSE 6.9 mph - N/A   Clear
9:53 AM 26.1 °F 19.4 °F 12.9 °F 58% 30.58 in 10.0 mi SSE 5.8 mph - N/A   Clear
10:53 AM 32.0 °F - 12.0 °F 44% 30.55 in 10.0 mi Calm Calm - N/A   Clear
11:53 AM 33.1 °F 30.0 °F 16.0 °F 50% 30.51 in 10.0 mi NW 3.5 mph - N/A   Clear
12:53 PM 35.1 °F 31.0 °F 17.1 °F 48% 30.45 in 10.0 mi North 4.6 mph - N/A   Clear
1:53 PM 37.0 °F - 17.1 °F 44% 30.41 in 10.0 mi Calm Calm - N/A   Clear
2:53 PM 37.9 °F - 18.0 °F 45% 30.40 in 10.0 mi Calm Calm - N/A   Clear
3:53 PM 37.9 °F - 17.1 °F 43% 30.37 in 10.0 mi Calm Calm - N/A   Clear
4:53 PM 34.0 °F - 18.0 °F 52% 30.38 in 10.0 mi Calm Calm - N/A   Clear
5:53 PM 27.0 °F 21.6 °F 18.0 °F 69% 30.40 in 10.0 mi SE 4.6 mph - N/A   Clear
6:53 PM 26.1 °F 17.6 °F 18.0 °F 71% 30.40 in 7.0 mi South 8.1 mph - N/A   Clear
7:53 PM 21.9 °F 13.4 °F 16.0 °F 78% 30.41 in 10.0 mi SSE 6.9 mph - N/A   Clear
8:53 PM 23.0 °F 15.8 °F 16.0 °F 74% 30.38 in 10.0 mi South 5.8 mph - N/A   Clear
9:53 PM 21.9 °F 14.5 °F 16.0 °F 78% 30.36 in 8.0 mi SSE 5.8 mph - N/A   Clear
10:53 PM 19.9 °F 11.1 °F 15.1 °F 81% 30.33 in 10.0 mi SSE 6.9 mph - N/A   Clear
11:53 PM 17.1 °F 7.6 °F 12.9 °F 84% 30.32 in 8.0 mi South 6.9 mph - N/A   Clear